Dewpoint
54 54 55 54 55 55 56 56 56 54 54 54 54 53 54 54 53 53 51 53 51 53 53 50 50 52 51 51 51 52 51 50 50 50 49 49 49 48 49 46 46 46 48 48 45 46 46 44 43 46 46 45 44 44 42 43 44 45 45 43 43 44 43 44 42 42 44 45 45 42 44 46 43 43 42 45 46 46 47 48 49 51 50 50 49
54 56 56 55 55 55 55 56 52 54 54 54 55 53 54 54 56 53 53 53 52 51 51 51 51 51 50 50 51 51 51 49 49 49 48 48 50 50 50 47 46 45 48 46 47 45 47 43 41 43 42 42 43 39 37 38 38 36 36 40 38 42 44 41 40 40 41 43 41 41 41 42 41 41 44 45 46 46 43 44 43 43 43 45 44
54 55 56 56 55 56 55 56 57 56 54 53 53 53 51 54 54 55 54 54 54 53 50 50 50 50 51 51 50 51 50 49 50 49 48 48 47 49 49 47 47 47 47 45 44 45 46 46 44 45 46 45 46 45 44 42 40 38 40 40 40 41 41 42 42 42 41 41 42 40 41 42 44 41 41 42 42 41 41 42 40 39 40 43 42
52 53 54 55 56 56 57 57 57 56 55 55 55 53 51 52 50 54 55 56 54 55 53 50 50 51 51 50 50 50 50 50 50 49 47 47 47 48 47 47 47 46 46 44 41 44 44 45 45 45 45 45 44 43 41 41 41 40 40 39 41 40 44 46 46 46 44 43 44 40 40 41 41 39 38 38 39 39 39 39 40 39 39 38 39
53 52 52 54 55 56 56 56 56 56 56 57 57 57 56 52 52 50 52 54 54 54 54 52 51 51 52 50 50 50 50 49 49 49 49 49 48 48 47 46 47 46 46 45 47 44 44 44 43 42 43 42 43 43 42 43 39 39 38 37 36 38 39 40 41 42 43 43 44 43 42 40 40 41 40 39 39 38 38 38 38 38 42 43 41
46 50 53 55 56 58 59 57 57 57 57 57 60 60 60 59 57 56 52 53 54 53 53 52 51 50 50 50 50 50 49 49 48 48 47 48 49 48 48 47 46 45 45 45 43 43 44 44 43 42 41 42 42 42 42 42 40 41 39 38 37 39 40 40 40 39 38 38 40 41 43 42 41 43 42 41 41 40 39 40 40 40 41 42 42
41 42 44 47 52 56 58 58 60 59 59 58 58 58 58 57 56 55 55 55 55 54 53 52 53 52 51 51 51 51 50 49 49 49 48 48 48 47 48 47 47 47 45 44 43 44 44 42 42 42 41 41 41 41 42 43 42 42 42 43 41 42 42 41 40 40 40 40 39 39 38 39 41 40 39 40 40 40 41 40 41 40 42 43 45
38 38 41 43 43 44 45 47 51 55 59 59 60 59 58 58 58 58 57 56 56 55 55 55 53 52 52 53 54 54 54 49 49 49 48 48 48 48 48 48 47 46 46 45 44 44 43 41 40 39 39 39 40 41 40 37 36 37 36 37 38 39 39 39 40 39 39 40 37 37 38 38 37 39 39 39 38 39 39 42 43 44 45 46 45
35 34 36 38 39 40 42 43 45 46 46 48 53 55 59 59 59 59 58 58 59 59 55 54 53 52 52 53 53 52 52 51 50 49 49 47 48 48 48 46 47 46 46 45 43 42 41 40 39 39 41 48 39 38 36 37 30 27 30 32 33 34 35 36 36 36 38 38 37 37 35 36 37 38 38 38 38 38 40 43 43 42 41 41 41
36 35 33 35 37 35 34 37 37 40 42 44 45 48 50 52 56 57 57 57 57 57 55 55 53 54 53 53 53 54 53 52 50 45 46 48 48 47 48 47 46 45 46 44 43 41 40 40 41 41 42 41 38 36 35 36 37 35 32 33 33 34 35 36 35 35 36 35 35 36 35 35 35 38 37 39 40 41 41 41 40 40 42 43 43
37 37 36 36 36 35 35 36 38 37 37 38 41 43 44 48 51 51 52 52 54 54 54 54 55 55 55 57 57 55 55 54 45 42 42 44 48 49 48 47 46 45 43 42 41 40 40 38 39 44 42 41 40 37 36 36 36 36 37 38 39 37 35 35 35 36 34 34 34 34 34 35 36 38 38 38 40 40 39 40 40 39 39 39 39
37 37 36 36 36 34 35 34 34 35 37 37 38 37 40 42 45 50 51 51 52 52 53 53 52 52 53 52 55 55 54 48 41 41 41 41 43 47 47 46 45 42 41 40 39 39 38 39 39 39 39 38 37 40 39 37 36 37 36 37 36 36 37 36 34 33 34 33 34 34 35 36 37 39 38 39 39 39 40 40 41 40 40 40 39
33 35 35 35 33 35 34 36 36 37 36 37 39 42 41 41 42 45 48 51 52 51 51 52 52 52 52 53 53 52 53 41 40 39 38 39 40 44 44 44 42 41 40 39 38 38 38 38 38 38 36 46 39 36 37 40 39 37 38 37 37 37 35 35 36 39 36 35 34 33 33 34 35 36 38 40 41 41 41 39 40 39 38 37 37
33 33 34 34 34 34 34 33 35 37 39 40 40 40 41 41 43 44 45 47 48 50 51 52 52 52 52 52 53 53 53 41 38 38 37 36 37 39 42 42 41 39 38 38 39 39 39 38 37 36 35 35 36 37 37 38 39 41 42 42 41 41 37 36 35 36 37 38 37 36 37 37 35 37 39 40 39 39 39 39 40 39 38 38 40
34 35 35 34 34 35 36 37 37 37 37 38 40 40 41 43 44 44 45 46 46 46 48 50 51 51 50 51 52 53 50 38 37 36 36 35 35 37 41 41 39 39 39 39 39 39 38 38 37 36 36 37 38 39 39 38 38 38 38 37 37 37 38 40 40 39 39 39 39 39 39 39 39 39 39 39 40 40 41 41 41 41 41 41 40
33 35 35 35 36 36 38 38 39 39 39 39 40 41 42 44 45 45 44 44 46 47 47 48 50 50 51 52 52 51 42 36 35 35 35 34 34 40 40 40 38 38 38 38 38 38 37 37 37 36 37 37 38 35 37 38 37 37 37 37 36 37 37 38 38 38 39 40 39 38 39 41 38 39 38 37 37 38 38 38 39 39 38 37 36
31 33 33 32 33 35 37 38 40 40 40 40 39 41 42 43 45 45 45 45 44 45 46 47 47 48 49 50 50 43 39 36 34 34 33 32 34 37 39 38 37 38 38 38 37 36 36 35 36 36 37 37 38 34 34 35 37 36 36 36 36 36 36 37 37 36 36 36 35 35 35 34 35 36 35 35 36 37 36 35 35 37 35 34 35
31 31 32 31 34 35 36 35 37 38 40 41 41 43 43 44 44 46 45 45 44 44 44 44 46 47 48 50 46 42 38 35 33 32 32 32 34 38 37 37 36 35 36 36 35 33 34 43 40 34 34 35 35 34 34 36 36 35 35 35 34 34 34 35 36 37 36 36 35 35 34 34 34 34 35 35 35 36 35 33 35 35 34 34 32
33 32 33 33 33 34 36 37 38 39 40 40 42 43 43 44 44 46 46 46 46 45 43 43 45 48 49 46 41 39 36 34 33 32 32 33 36 37 34 32 32 32 32 30 32 32 31 40 40 36 35 35 34 34 34 35 34 34 34 34 32 32 33 34 34 34 34 35 36 39 38 36 37 36 36 36 36 37 37 36 35 34 34 33 33
34 34 34 35 36 35 37 38 40 41 41 43 43 44 44 44 46 46 46 44 43 43 44 45 45 46 44 41 39 37 33 33 34 33 34 33 33 36 33 31 28 28 29 28 29 30 29 29 34 35 34 34 34 33 34 34 34 34 34 33 32 31 32 32 33 33 34 34 35 35 35 35 35 36 35 35 37 38 38 37 36 35 34 33 33
36 35 35 35 36 36 35 37 40 41 41 42 43 43 44 44 45 44 44 44 45 44 47 46 44 43 40 38 36 35 34 32 34 33 34 34 33 34 31 29 29 28 28 26 26 26 25 27 31 36 34 34 34 34 34 34 35 34 34 34 33 34 33 32 32 33 32 32 32 32 32 32 33 33 33 33 33 34 35 36 37 36 35 33 32
36 35 35 35 36 37 38 40 42 44 43 43 43 43 43 43 43 45 44 44 45 48 46 44 43 40 38 36 35 34 34 35 32 34 34 34 33 32 32 31 33 29 24 22 23 27 29 30 33 34 33 33 33 33 34 34 34 33 33 32 32 32 32 32 31 30 30 30 30 30 30 30 30 31 31 31 32 33 33 34 35 36 36 36 35
36 36 36 36 37 38 40 41 42 43 44 44 42 42 42 43 44 45 46 47 47 47 46 43 42 39 37 35 35 34 33 32 33 33 35 34 34 34 33 35 32 35 30 28 31 31 32 33 36 35 33 32 33 33 33 33 33 32 32 32 32 32 32 31 30 30 30 30 30 30 30 30 31 31 31 31 32 33 33 34 34 34 35 36 36
36 37 39 39 40 40 40 40 41 42 41 41 41 42 42 43 43 45 48 47 46 46 43 42 40 39 37 36 36 33 32 30 33 34 34 34 34 34 34 33 33 33 33 32 31 32 33 35 35 32 32 32 32 32 32 32 31 32 32 32 32 32 32 31 30 30 30 30 30 30 30 30 30 30 31 32 31 32 33 33 33 33 33 34 33
36 36 37 37 38 38 40 40 39 39 39 39 41 41 42 43 43 46 46 45 44 42 40 39 37 36 34 33 32 31 32 31 34 35 34 34 34 33 33 33 32 32 33 33 33 34 33 33 32 32 32 33 33 33 33 33 33 32 32 32 34 32 31 30 30 31 30 30 30 31 30 30 30 31 32 32 33 33 33 33 33 33 33 34 34
36 36 36 37 36 35 37 38 39 39 40 40 41 43 44 44 44 47 45 44 42 40 38 36 35 34 32 31 31 32 31 31 31 32 36 35 34 33 33 33 33 33 34 34 33 33 33 32 32 32 32 33 33 33 31 30 32 32 32 33 33 31 31 30 30 30 30 30 30 30 31 31 31 32 33 33 32 32 33 33 33 32 33 33 32
35 36 36 36 37 37 37 38 38 39 41 41 43 45 45 45 45 43 43 42 40 39 37 36 34 32 32 30 29 28 29 29 30 32 31 33 34 36 34 35 34 34 34 35 35 36 35 32 31 31 31 31 32 31 31 32 32 32 31 32 32 32 33 32 32 32 32 32 32 32 32 32 32 32 32 32 32 33 33 33 33 32 33 32 32
36 35 36 37 37 37 38 36 38 41 42 43 44 45 44 45 43 42 42 42 40 38 36 33 31 31 29 28 26 25 24 26 29 30 30 30 31 29 30 31 32 31 31 33 31 31 31 31 32 32 33 33 33 32 30 30 29 29 28 29 29 29 30 32 32 30 30 30 30 30 31 32 31 31 32 32 32 32 33 33 33 32 33 32 32
37 38 38 38 38 38 39 40 44 42 43 43 43 43 43 42 42 41 40 36 37 35 35 31 29 27 24 23 24 27 29 30 31 33 34 33 32 34 32 31 31 30 32 33 30 31 31 31 29 28 28 28 27 29 28 28 28 29 30 29 29 29 29 28 28 29 29 29 30 31 32 33 32 32 32 32 33 32 33 32 33 33 33 33 32
38 38 39 39 39 40 41 42 42 42 41 39 36 35 32 36 39 40 37 34 34 34 32 32 32 28 32 32 33 32 29 30 33 33 33 34 33 33 34 33 33 32 33 33 33 30 29 27 28 27 27 27 27 27 27 28 28 28 28 29 29 28 28 28 28 28 29 30 30 31 31 32 32 33 33 33 33 33 33 33 33 34 34 34 34
39 40 42 43 43 43 42 41 41 40 38 36 35 33 32 32 33 33 33 33 33 32 32 31 31 31 31 30 32 32 32 33 33 33 34 34 34 34 33 33 33 33 33 31 29 28 28 27 26 26 28 28 27 27 27 27 27 27 28 29 29 29 29 30 30 30 30 30 31 31 31 32 32 32 33 33 34 34 33 34 36 36 36 35 35
39 40 39 41 41 43 43 42 42 41 41 38 32 30 30 31 33 32 33 32 32 32 32 32 31 31 31 30 31 31 32 33 33 33 34 34 34 33 33 33 33 33 33 33 29 28 26 26 26 27 28 28 27 27 28 28 29 28 28 28 29 29 30 30 30 30 31 31 31 31 31 31 32 32 32 32 32 33 34 34 34 34 34 35 35
38 38 39 39 40 40 41 41 38 35 34 32 30 27 26 29 28 28 32 32 32 32 32 32 32 32 32 33 33 32 32 33 33 33 33 34 33 33 33 33 33 32 32 30 28 26 27 28 28 28 28 28 28 29 28 29 29 29 30 30 29 30 30 30 31 31 31 31 31 31 31 31 31 31 31 31 31 31 32 32 33 34 34 33 33
39 37 37 37 38 39 39 37 36 33 30 28 25 25 25 27 28 27 27 28 29 30 32 32 32 32 32 32 32 32 33 33 33 33 33 33 33 33 32 33 33 33 32 30 28 27 27 27 27 28 27 28 28 28 28 29 29 30 30 30 30 30 30 30 31 31 31 31 31 31 31 31 31 31 30 30 31 31 31 31 32 32 32 33 32
34 33 32 32 33 35 36 36 34 32 31 28 27 27 29 28 27 27 26 26 28 27 26 28 30 30 30 31 32 32 33 33 33 33 33 33 33 33 33 33 28 27 30 31 27 27 27 28 28 28 28 28 28 28 29 30 30 30 30 31 31 31 31 31 31 31 31 31 31 31 31 31 32 31 31 31 30 30 30 31 31 32 32 32 32
34 29 30 30 29 29 29 29 30 29 28 28 28 27 27 27 27 27 28 28 28 27 27 28 27 32 32 32 32 32 33 33 33 33 32 32 33 33 30 26 23 23 24 25 26 28 28 28 28 28 28 28 29 29 30 30 30 30 30 30 30 30 31 31 31 31 31 31 31 31 31 31 31 31 31 31 32 31 31 30 31 32 32 32 32
35 32 29 29 27 27 28 28 28 28 29 28 28 27 28 29 28 28 29 29 29 28 27 27 28 30 30 31 32 32 33 32 32 33 32 32 33 32 31 28 27 25 25 24 26 28 28 28 28 28 28 28 29 29 29 30 30 30 31 31 31 31 31 30 31 31 31 31 31 31 31 31 31 31 31 31 31 31 31 32 32 32 32 32 32
41 35 30 26 28 29 29 27 28 29 30 28 28 28 28 28 28 28 28 29 28 28 27 28 29 27 27 28 32 29 31 32 33 33 32 31 31 31 28 27 26 26 25 26 28 28 28 28 28 28 29 28 29 29 30 30 31 31 30 31 30 30 31 31 31 32 31 31 31 32 32 32 32 32 32 32 32 32 32 32 32 32 32 32 32
36 32 31 31 31 31 28 27 27 27 27 27 28 27 27 26 27 26 27 26 27 27 26 27 26 30 30 29 29 32 29 29 29 28 29 28 28 28 28 27 27 27 28 28 28 28 29 28 29 28 28 29 29 30 30 30 31 30 30 30 30 30 30 30 30 31 31 31 31 31 31 32 32 32 32 32 32 32 32 32 32 32 32 32 32
33 31 30 30 30 29 28 28 28 26 27 26 25 25 25 25 25 25 25 26 26 26 26 27 29 33 31 31 30 30 28 26 28 27 27 28 28 29 29 28 29 28 28 29 28 29 29 29 28 28 29 29 29 30 31 31 31 31 31 30 30 30 30 30 30 30 30 30 31 31 31 31 31 32 32 32 33 33 33 33 32 33 33 32 32
34 34 31 31 29 26 27 26 27 28 26 27 28 27 28 27 27 25 25 26 27 25 27 29 32 31 30 31 31 30 30 29 30 29 29 29 29 30 30 30 29 29 29 28 29 29 29 28 28 28 28 29 29 30 31 31 31 31 30 30 30 30 30 30 30 30 31 31 31 31 31 31 32 32 32 32 33 33 33 33 33 33 33 33 33
35 34 32 28 28 26 25 25 26 27 28 28 28 27 27 27 28 28 26 27 26 27 30 30 33 32 31 29 31 31 31 30 30 30 31 30 30 30 29 30 30 29 29 29 30 29 28 28 28 28 29 29 30 30 31 31 31 31 31 30 30 30 30 30 30 31 31 31 31 31 32 32 32 32 32 33 34 34 33 33 33 33 33 33 33
35 34 31 29 28 27 26 26 26 28 29 30 30 30 30 30 30 30 29 30 29 30 30 30 31 32 32 31 32 31 33 32 30 30 30 30 30 30 30 30 30 30 30 30 30 30 29 29 29 28 29 30 30 31 31 32 32 31 31 31 30 30 30 30 30 30 30 31 31 31 32 32 32 33 32 33 34 34 34 33 33 33 33 33 33
34 32 30 28 28 28 28 30 31 31 31 31 32 32 32 32 32 32 31 31 31 31 31 31 31 31 31 32 32 32 30 30 30 30 31 30 30 29 29 30 30 30 30 29 29 30 29 29 29 29 30 30 31 32 32 32 32 32 31 31 31 30 30 30 30 31 31 31 31 32 32 32 33 33 33 33 33 34 34 33 33 33 33 33 33
34 32 31 30 30 32 31 31 30 32 31 31 31 31 32 32 32 32 31 31 31 31 31 30 30 31 28 28 30 29 30 30 29 30 30 30 30 30 29 29 30 30 29 29 29 30 30 29 29 30 30 30 31 32 32 32 32 32 32 32 31 31 31 31 31 32 32 32 32 32 32 32 32 33 33 33 33 33 33 33 33 33 33 33 33
33 33 31 31 32 31 31 32 32 32 32 32 31 31 31 31 31 30 30 30 30 30 29 29 30 29 29 29 29 29 30 30 30 30 30 30 30 30 29 29 30 30 29 29 29 30 29 30 30 30 30 31 31 31 32 32 32 32 32 32 31 32 32 32 32 32 32 33 33 33 33 33 33 33 33 33 33 33 33 33 33 33 33 33 33
33 33 33 32 32 32 32 32 32 32 31 31 31 30 31 31 30 30 29 29 29 29 29 28 30 28 28 28 29 29 29 29 29 29 30 30 30 29 29 30 30 30 29 29 30 29 30 30 30 30 31 31 31 31 32 32 32 32 32 32 32 32 32 32 33 33 33 33 33 33 33 33 33 33 33 33 33 33 33 33 33 33 33 33 33
32 32 32 32 32 32 32 31 31 31 31 30 30 30 29 29 29 29 29 29 29 28 28 29 29 28 29 28 29 28 29 30 29 30 29 28 29 29 29 30 29 29 29 29 29 29 30 30 30 31 31 31 31 30 31 32 32 31 32 32 32 33 33 33 33 33 33 33 33 33 33 33 33 33 33 33 33 33 32 33 33 32 33 33 32
31 31 31 31 31 31 30 30 31 30 30 30 30 29 29 29 29 28 28 28 29 28 28 28 27 28 27 27 27 27 28 28 28 28 28 28 28 29 29 29 30 30 29 29 29 30 30 30 31 30 30 31 31 30 31 31 31 31 32 32 32 33 33 33 33 33 34 33 33 33 33 33 33 33 33 33 33 33 33 32 32 32 32 32 32
31 31 31 31 31 30 30 31 30 30 30 30 29 29 29 29 28 28 28 28 28 28 28 28 27 28 27 27 27 27 26 27 27 28 28 28 28 28 28 29 29 29 29 29 29 29 30 31 31 30 30 30 30 30 30 30 31 30 31 32 32 33 33 33 33 33 33 33 33 33 33 33 33 33 33 33 33 33 33 32 32 32 32 32 32
32 30 30 30 30 30 30 30 30 30 30 30 29 29 28 28 28 28 28 28 27 27 27 28 28 27 27 27 27 27 26 26 27 27 27 28 27 28 29 29 29 29 29 29 29 29 30 30 30 29 29 29 28 28 28 30 30 30 31 32 32 33 33 33 33 33 33 33 33 33 33 33 33 32 32 33 33 33 32 32 32 32 32 32 32